This demonstration page uses our WeatherBlox Daily Observations layout. Learn more.

Left ArrowRight Arrow

Hourly Observations for May 31, 2017

Temp ( °F °C ) Dew Point ( °F °C ) Humidity (%) Winds ( mph kmh ) Pressure ( in mb ) Visibility ( mi km ) Precip ( " mm )
12:54 am 00:54 Clear 56 13.3 43 6.1 62 62 Calm 30.04 1017 10 16.0934 0 0
1:54 am 01:54 Clear 51 10.6 44 6.7 77 77 N 3 6 30.05 1018 10 16.0934 0 0
2:54 am 02:54 Clear 52 11.1 45 7.2 77 77 NNE 5 7 30.05 1018 10 16.0934 0 0
3:54 am 03:54 Clear 51 10.6 45 7.2 80 80 N 6 9 30.06 1018 10 16.0934 0 0
4:54 am 04:54 Clear 47 8.3 43 6.1 86 86 NNW 5 7 30.06 1018 10 16.0934 0 0
5:54 am 05:54 Clear 46 7.8 42 5.6 86 86 N 3 6 30.08 1019 10 16.0934 0 0
6:54 am 06:54 Sunny 53 11.7 43 6.1 69 69 Calm 30.09 1019 10 16.0934 0 0
7:54 am 07:54 Sunny 57 13.9 47 8.3 69 69 N 5 7 30.1 1019 8 12.87472 0 0
8:54 am 08:54 Sunny 65 18.3 45 7.2 49 49 E 7 11 30.1 1019 10 16.0934 0 0
9:54 am 09:54 Sunny 70 21.1 45 7.2 41 41 ENE 8 13 30.1 1019 10 16.0934 0 0
10:54 am 10:54 Sunny 72 22.2 44 6.7 37 37 E 7 11 30.09 1019 10 16.0934 0 0
11:54 am 11:54 Sunny 75 23.9 43 6.1 32 32 ENE 8 13 30.09 1019 10 16.0934 0 0
12:54 pm 12:54 Sunny 77 25 43 6.1 30 30 ESE 7 11 30.08 1019 10 16.0934 0 0
1:54 pm 13:54 Sunny 78 25.6 46 7.8 32 32 NE 9 15 30.07 1018 10 16.0934 0 0
2:54 pm 14:54 Sunny 80 26.7 42 5.6 26 26 Calm 30.07 1018 10 16.0934 0 0
3:54 pm 15:54 Sunny 79 26.1 42 5.6 27 27 Calm 30.06 1018 10 16.0934 0 0
4:54 pm 16:54 Sunny 79 26.1 45 7.2 30 30 ENE 13 20 30.01 1016 10 16.0934 0 0
5:54 pm 17:54 Sunny 76 24.4 45 7.2 33 33 NNE 9 15 30.03 1017 10 16.0934 0 0
6:54 pm 18:54 Mostly Sunny 75 23.9 46 7.8 36 36 ENE 12 19 30.01 1016 10 16.0934 0 0
7:54 pm 19:54 Cloudy with Light Rain 71 21.7 47 8.3 42 42 NE 9 15 30.03 1017 10 16.0934 0 0.0254
8:54 pm 20:54 Mostly Cloudy 69 20.6 47 8.3 45 45 NE 5 7 30.04 1017 10 16.0934 0 0.0254
9:54 pm 21:54 Clear 65 18.3 51 10.6 61 61 S 6 9 30.03 1017 10 16.0934 0 0.0254
10:54 pm 22:54 Clear 63 17.2 47 8.3 56 56 E 3 6 30.05 1018 10 16.0934 0 0
11:54 pm 23:54 Clear 59 15 49 9.4 69 69 Calm 30.05 1018 10 16.0934 0 0

Powered by AerisWeather